This is the latest recevied weather packets stored in our database for station/object KC3LDA. If no packets are shown the sender has not sent any weather packets the latest 10 day(s).
| Time | Temp. | Humidity | Pressure | Rain* | Wind** | Luminosity | Snow |
|---|---|---|---|---|---|---|---|
| 1777739150 | 12.78° C | 88% | 1008.6 hPa | 0 mm | - | 347 W/m² | - |
| 1777738847 | 12.78° C | 88% | 1008.8 hPa | 0 mm | - | 353 W/m² | - |
| 1777738544 | 12.22° C | 89% | 1008.6 hPa | 0 mm | - | 401 W/m² | - |
| 1777738242 | 12.22° C | 89% | 1008.8 hPa | 0 mm | - | 322 W/m² | - |
| 1777737940 | 11.67° C | 89% | 1008.8 hPa | 0 mm | - | 222 W/m² | - |
| 1777737638 | 11.67° C | 90% | 1009 hPa | 0 mm | - | 184 W/m² | - |
| 1777737336 | 11.67° C | 90% | 1008.9 hPa | 0 mm | - | 204 W/m² | - |
| 1777737033 | 11.67° C | 90% | 1008.9 hPa | 0 mm | - | 243 W/m² | - |
| 1777736728 | 12.22° C | 90% | 1008.8 hPa | 0 mm | - | 214 W/m² | - |
| 1777735792 | 11.67° C | 91% | 1008.9 hPa | 0 mm | - | 109 W/m² | - |
| 1777735489 | 11.67° C | 90% | 1008.9 hPa | 0 mm | - | 61 W/m² | - |
| 1777735187 | 11.67° C | 90% | 1008.7 hPa | 0 mm | - | 73 W/m² | - |
| 1777734884 | 12.22° C | 89% | 1008.8 hPa | 0 mm | - | 78 W/m² | - |
| 1777734581 | 12.22° C | 87% | 1009 hPa | 0 mm | - | 131 W/m² | - |
| 1777734278 | 12.22° C | 86% | 1008.8 hPa | 0 mm | - | 119 W/m² | - |
| 1777733974 | 12.78° C | 83% | 1009.1 hPa | 0 mm | - | 143 W/m² | - |
| 1777733671 | 12.78° C | 84% | 1008.9 hPa | 0 mm | - | 161 W/m² | - |
| 1777733367 | 12.78° C | 83% | 1008.8 hPa | 0 mm | - | 167 W/m² | - |
| 1777733064 | 12.78° C | 83% | 1008.9 hPa | 0 mm | - | 197 W/m² | - |
| 1777732760 | 13.33° C | 84% | 1008.9 hPa | 0 mm | - | 214 W/m² | - |
| 1777732457 | 12.78° C | 85% | 1008.9 hPa | 0 mm | - | 226 W/m² | - |
| 1777732155 | 12.78° C | 83% | 1008.9 hPa | 0 mm | - | 195 W/m² | - |
| 1777731852 | 12.78° C | 84% | 1008.8 hPa | 0 mm | - | 218 W/m² | - |
| 1777731548 | 12.78° C | 86% | 1008.9 hPa | 0 mm | - | 192 W/m² | - |
| 1777731246 | 12.22° C | 87% | 1008.9 hPa | 0 mm | - | 182 W/m² | - |
* Rain latest hour (hover to see other rain measurements)
** Current wind speed in m/s (hover to see current wind gust speed)